sat.trackr.live / text

‹ back to catalog

STARLINK-33926

NORAD 64147 · 2025-112B

PAYLOAD ACTIVE UNKNOWN

§ Identity

Operator
Country
US
Launch date
2025-05-27
Launch site
AFWTR
Launch vehicle
Mass (kg)
RCS (m²)

Purposes: comms

External: N2YO · Heavens-Above · Gunter

§ Orbital elements

Epoch: 2026-05-25T03:18:02.592000Z

Period
95.64 min
Inclination
97.4465°
Eccentricity
0.0001472
Mean motion
15.05660616 rev/d
Perigee alt
548.5 km
Apogee alt
550.5 km
Semi-major
6,927.6 km
B*
2.5291e-4
RAAN
196.5358°
Arg perigee
102.6845°
Mean anomaly
257.4547°
Rev number
5,481

§ Raw data

STARLINK-339261 64147U 25112B   26145.13753000  .00003593  00000+0  25291-3 0  99912 64147  97.4465 196.5358 0001472 102.6845 257.4547 15.05660616 54814

JSON: /api/v1/satellites/64147 · /tle

For live sub-satellite position, see the globe view (requires WebGL).

§ Visibility from observer

Set your observer location to see the next 7 days of passes ≥ 10°. The values pass through the URL so the page stays shareable.

No JS? Fill the form by hand. The geolocation button needs JavaScript.